Location: Torch Lake Township
(45.0753°N, 85.3586°W)
Time: 01:53:58
(UTC-04:00)

Amateur Radio Satellites - All Passes

Search period start: 22 August 2014 01:23
Search period end: 23 August 2014 01:23
Location: Torch Lake Township, 45.0753°N, 85.3586°W

Satellite Date Start Highest point End Downlink Frequencies (MHz)
Time Altitude Azimuth
Saudisat 1A 22 Aug 01:27:54 01:31:28 25° 114° (ESE) 01:35:04 436.775 MHz
Oscar 19 22 Aug 01:51:02 01:52:11 11° 86° (E) 01:53:21 437.125 CW, 437.150 USB
KITSAT 1 22 Aug 02:15:37 02:23:31 60° 116° (ESE) 02:31:26 435.175 FM
Oscar 16 22 Aug 02:21:45 02:25:49 23° 93° (E) 02:29:52 437.025 USB, Beacon 2401.1428
MaSat-1 22 Aug 02:22:43 02:27:20 43° 250° (WSW) 02:31:26 437.345 MHz
AO-27 22 Aug 02:27:49 02:28:34 10° 86° (E) 02:29:19 436.795 MHz FM
Sapphire 22 Aug 02:32:29 02:33:45 11° 25° (NNE) 02:35:02 437.095 MHz 1200 baud AX-25 AFSK
PCSat 22 Aug 03:01:52 03:05:06 16° 33° (NNE) 03:08:19 145.825 MHz
Saudisat 1A 22 Aug 03:06:37 03:10:50 43° 312° (NW) 03:15:05 436.775 MHz
Oscar 19 22 Aug 03:27:05 03:32:20 83° 104° (ESE) 03:37:32 437.125 CW, 437.150 USB
AO-Echo 22 Aug 03:32:55 03:37:29 45° 99° (E) 03:41:58 ?
Gurwin Techsat 1B 22 Aug 03:37:18 03:41:25 22° 92° (E) 03:45:31 435.225 FM
ITAMSAT 1 22 Aug 03:37:23 03:42:22 46° 99° (E) 03:47:20 435.822 SSB
JAS-1B 22 Aug 03:42:20 03:49:35 46° 96° (E) 03:55:40 435.800 - 435.900 CW/SSB
Uribyol 2 22 Aug 03:49:49 03:54:58 64° 102° (ESE) 04:00:07 436.500 FM
Oscar 16 22 Aug 04:00:25 04:05:26 50° 290° (WNW) 04:10:26 437.025 USB, Beacon 2401.1428
AO-27 22 Aug 04:03:41 04:08:54 81° 104° (ESE) 04:14:04 436.795 MHz FM
OPAL 22 Aug 04:09:51 04:14:15 32° 63° (ENE) 04:18:42 ?
KITSAT 1 22 Aug 04:11:46 04:19:18 41° 318° (NW) 04:26:52 435.175 FM
Sapphire 22 Aug 04:13:47 04:18:50 37° 48° (NE) 04:23:51 437.095 MHz 1200 baud AX-25 AFSK
TMSAT-1 22 Aug 04:34:34 04:39:45 53° 100° (E) 04:44:54 436.925 FM
PCSat 22 Aug 04:44:12 04:49:37 65° 55° (NE) 04:55:00 145.825 MHz
Saudisat 1A 22 Aug 04:50:23 04:51:35 11° 334° (NNW) 04:52:46 436.775 MHz
Oscar 19 22 Aug 05:08:00 05:10:59 16° 302° (WNW) 05:13:58 437.125 CW, 437.150 USB
AO-Echo 22 Aug 05:12:21 05:15:59 22° 297° (WNW) 05:19:33 ?
AO-7 22 Aug 05:14:07 05:21:23 33° 95° (E) 05:28:35 29.400 - 29.500 MHz
Gurwin Techsat 1B 22 Aug 05:16:32 05:21:41 52° 290° (WNW) 05:26:49 435.225 FM
ITAMSAT 1 22 Aug 05:17:26 05:21:37 25° 297° (WNW) 05:25:47 435.822 SSB
Uribyol 2 22 Aug 05:30:22 05:33:58 20° 300° (WNW) 05:37:34 436.500 FM
JAS-1B 22 Aug 05:33:06 05:40:02 37° 300° (WNW) 05:45:57 435.800 - 435.900 CW/SSB
AO-27 22 Aug 05:44:45 05:47:45 16° 302° (WNW) 05:50:45 436.795 MHz FM
OPAL 22 Aug 05:48:28 05:53:03 36° 261° (W) 05:57:44 ?
Uosat F 22 Aug 05:53:06 05:58:02 56° 101° (E) 06:02:56 435.120 FM
Sapphire 22 Aug 05:57:16 06:02:16 38° 248° (WSW) 06:07:14 437.095 MHz 1200 baud AX-25 AFSK
KITSAT 1 22 Aug 06:12:01 06:17:17 18° 346° (NNW) 06:22:34 435.175 FM
TMSAT-1 22 Aug 06:15:12 06:19:20 24° 298° (WNW) 06:23:27 436.925 FM
PCSat 22 Aug 06:28:37 06:32:31 21° 254° (WSW) 06:36:25 145.825 MHz
SO-50 22 Aug 06:51:17 06:55:29 42° 118° (ESE) 06:59:47 436.795 FM
Hamsat 22 Aug 06:53:44 06:57:17 24° 93° (E) 07:00:47 145.90 MHz
AO-7 22 Aug 07:06:29 07:14:38 62° 295° (WNW) 07:22:43 29.400 - 29.500 MHz
STRAND 1 22 Aug 07:15:57 07:20:59 62° 72° (ENE) 07:26:02 ?
Uosat F 22 Aug 07:32:46 07:36:25 21° 299° (WNW) 07:40:03 435.120 FM
JAS-2 22 Aug 07:47:22 07:52:32 65° 102° (ESE) 07:57:47 435.800 - 435.900 CW/SSB, 435.910 FM
SO-67 22 Aug 08:02:39 08:04:59 17° 93° (E) 08:07:19 435.3500 MHz FM
UOSAT-12 22 Aug 08:04:59 08:08:19 20° 111° (ESE) 08:11:43 437.025 FM, 437.400 FM
KITSAT 1 22 Aug 08:10:58 08:16:24 19° 17° (NNE) 08:21:48 435.175 FM
Saudisat 1A 22 Aug 08:15:12 08:15:18 10° 24° (NNE) 08:15:24 436.775 MHz
Hamsat 22 Aug 08:29:20 08:33:19 35° 291° (WNW) 08:37:16 145.90 MHz
SO-50 22 Aug 08:32:12 08:36:10 29° 318° (NW) 08:40:14 436.795 FM
STRAND 1 22 Aug 08:57:11 09:00:36 18° 269° (W) 09:04:02 ?
AO-7 22 Aug 09:01:02 09:05:49 17° 317° (NW) 09:10:35 29.400 - 29.500 MHz
HO-68 22 Aug 09:33:28 09:38:36 21° 90° (E) 09:43:42 435.675 MHz FM
JAS-2 22 Aug 09:33:47 09:37:11 18° 301° (WNW) 09:40:34 435.800 - 435.900 CW/SSB, 435.910 FM
SO-67 22 Aug 09:35:02 09:38:07 30° 289° (WNW) 09:41:12 435.3500 MHz FM
RS-15 22 Aug 09:36:55 09:47:05 44° 110° (ESE) 09:57:05 29.354 - 29.394 USB, Beacon 29.352 USB
UOSAT-12 22 Aug 09:43:30 09:48:04 57° 310° (NW) 09:52:44 437.025 FM, 437.400 FM
Saudisat 1A 22 Aug 09:51:59 09:56:08 38° 46° (NE) 10:00:15 436.775 MHz
KITSAT 1 22 Aug 10:06:34 10:14:14 44° 44° (NE) 10:21:51 435.175 FM
UKube-1 22 Aug 11:08:45 11:13:05 68° 102° (ESE) 11:17:24 145.840 MHz, 145.915 MHz
HO-68 22 Aug 11:19:53 11:27:03 80° 289° (WNW) 11:34:12 435.675 MHz FM
Oscar 11 22 Aug 11:24:49 11:29:11 64° 101° (ESE) 11:33:31 145.825 FM, Beacon 2401.500 USB
FUNcube-1 22 Aug 11:24:55 11:28:40 26° 95° (E) 11:32:28 145.950 - 145.970 MHz USB
UOSAT-12 22 Aug 11:26:46 11:29:15 14° 331° (NNW) 11:31:44 437.025 FM, 437.400 FM
Saudisat 1A 22 Aug 11:31:49 11:35:36 28° 245° (WSW) 11:39:22 436.775 MHz
RS-15 22 Aug 11:48:10 11:59:03 62° 314° (NW) 12:09:55 29.354 - 29.394 USB, Beacon 29.352 USB
KITSAT 1 22 Aug 12:02:04 12:09:51 54° 246° (WSW) 12:17:36 435.175 FM
JAS-1B 22 Aug 12:41:12 12:46:23 16° 46° (NE) 12:51:20 435.800 - 435.900 CW/SSB
UKube-1 22 Aug 12:46:29 12:48:46 14° 300° (WNW) 12:51:03 145.840 MHz, 145.915 MHz
FUNcube-1 22 Aug 13:01:08 13:05:05 33° 291° (WNW) 13:09:06 145.950 - 145.970 MHz USB
Oscar 11 22 Aug 13:02:25 13:04:52 15° 299° (WNW) 13:07:18 145.825 FM, Beacon 2401.500 USB
Oscar 19 22 Aug 13:08:30 13:12:18 21° 61° (ENE) 13:16:07 437.125 CW, 437.150 USB
HO-68 22 Aug 13:09:08 13:13:43 19° 309° (NW) 13:18:18 435.675 MHz FM
AO-Echo 22 Aug 13:12:59 13:14:34 11° 56° (ENE) 13:16:08 ?
ITAMSAT 1 22 Aug 13:21:24 13:23:51 14° 56° (NE) 13:26:17 435.822 SSB
Uribyol 2 22 Aug 13:32:43 13:36:04 18° 59° (ENE) 13:39:25 436.500 FM
Oscar 16 22 Aug 13:40:29 13:45:15 40° 68° (ENE) 13:50:04 437.025 USB, Beacon 2401.1428
SO-50 22 Aug 13:41:07 13:44:01 16° 32° (NNE) 13:46:56 436.795 FM
AO-27 22 Aug 13:46:09 13:50:03 22° 61° (ENE) 13:53:58 436.795 MHz FM
ISS 22 Aug 13:53:28 13:54:18 11° 131° (SE) 13:55:08 145.800 FM
RS-15 22 Aug 14:04:59 14:14:10 29° 345° (NNW) 14:23:26 29.354 - 29.394 USB, Beacon 29.352 USB
TMSAT-1 22 Aug 14:20:26 14:23:27 16° 57° (ENE) 14:26:27 436.925 FM
JAS-1B 22 Aug 14:25:33 14:35:04 55° 66° (ENE) 14:43:56 435.800 - 435.900 CW/SSB
AO-7 22 Aug 14:27:57 14:32:01 15° 40° (NE) 14:36:05 29.400 - 29.500 MHz
Oscar 19 22 Aug 14:46:10 14:51:13 57° 259° (W) 14:56:20 437.125 CW, 437.150 USB
AO-Echo 22 Aug 14:47:23 14:52:32 75° 74° (ENE) 14:57:33 ?
UOSAT-12 22 Aug 14:53:28 14:54:11 10° 22° (NNE) 14:54:54 437.025 FM, 437.400 FM
ITAMSAT 1 22 Aug 14:57:23 15:02:34 86° 74° (ENE) 15:07:46 435.822 SSB
Gurwin Techsat 1B 22 Aug 15:00:08 15:05:06 42° 68° (ENE) 15:10:06 435.225 FM
Uribyol 2 22 Aug 15:09:50 15:14:59 71° 257° (WSW) 15:20:09 436.500 FM
Oscar 16 22 Aug 15:20:20 15:24:43 28° 265° (W) 15:29:09 437.025 USB, Beacon 2401.1428
SO-50 22 Aug 15:20:41 15:25:27 69° 52° (NE) 15:30:16 436.795 FM
AO-27 22 Aug 15:24:06 15:29:11 55° 259° (W) 15:34:18 436.795 MHz FM
ISS 22 Aug 15:27:11 15:30:29 73° 148° (SSE) 15:33:49 145.800 FM
Uosat F 22 Aug 15:32:37 15:35:14 14° 57° (ENE) 15:37:51 435.120 FM
TMSAT-1 22 Aug 15:57:22 16:02:40 85° 256° (WSW) 16:08:00 436.925 FM
MaSat-1 22 Aug 16:12:24 16:17:04 57° 112° (ESE) 16:22:09 437.345 MHz
AO-7 22 Aug 16:14:58 16:22:58 54° 63° (ENE) 16:30:59 29.400 - 29.500 MHz
JAS-1B 22 Aug 16:16:15 16:25:35 45° 264° (W) 16:34:29 435.800 - 435.900 CW/SSB
RS-15 22 Aug 16:21:28 16:30:55 31° 20° (NNE) 16:40:33 29.354 - 29.394 USB, Beacon 29.352 USB
AO-Echo 22 Aug 16:29:02 16:31:48 15° 271° (W) 16:34:33 ?
UOSAT-12 22 Aug 16:31:26 16:35:46 34° 44° (NE) 16:40:04 437.025 FM, 437.400 FM
ITAMSAT 1 22 Aug 16:40:31 16:42:44 13° 272° (W) 16:44:58 435.822 SSB
Gurwin Techsat 1B 22 Aug 16:40:44 16:45:13 28° 266° (W) 16:49:44 435.225 FM
SO-50 22 Aug 17:02:25 17:05:32 17° 250° (WSW) 17:08:40 436.795 FM
ISS 22 Aug 17:04:26 17:07:27 31° 347° (NNW) 17:10:29 145.800 FM
Uosat F 22 Aug 17:08:18 17:13:20 86° 255° (WSW) 17:18:23 435.120 FM
TMSAT-1 22 Aug 17:41:47 17:43:23 11° 274° (W) 17:44:58 436.925 FM
Hamsat 22 Aug 17:49:19 17:52:39 23° 65° (ENE) 17:56:01 145.90 MHz
MaSat-1 22 Aug 17:50:31 17:54:36 25° 313° (NW) 17:58:51 437.345 MHz
OPAL 22 Aug 17:55:39 18:00:43 49° 102° (ESE) 18:05:46 ?
JAS-2 22 Aug 18:01:16 18:07:11 38° 67° (ENE) 18:12:30 435.800 - 435.900 CW/SSB, 435.910 FM
AO-7 22 Aug 18:08:19 18:15:58 39° 262° (W) 18:23:39 29.400 - 29.500 MHz
UOSAT-12 22 Aug 18:11:36 18:15:58 37° 243° (WSW) 18:20:14 437.025 FM, 437.400 FM
RS-15 22 Aug 18:34:35 18:45:38 71° 50° (NE) 18:57:03 29.354 - 29.394 USB, Beacon 29.352 USB
ISS 22 Aug 18:41:55 18:44:49 27° 7° (N) 18:47:43 145.800 FM
Uosat F 22 Aug 18:51:47 18:52:52 11° 273° (W) 18:53:57 435.120 FM
Sapphire 22 Aug 18:59:02 19:02:56 21° 106° (ESE) 19:06:50 437.095 MHz 1200 baud AX-25 AFSK
Hamsat 22 Aug 19:24:26 19:28:24 37° 263° (W) 19:32:27 145.90 MHz
STRAND 1 22 Aug 19:25:39 19:29:01 18° 91° (E) 19:32:22 ?
PCSat 22 Aug 19:28:09 19:33:07 38° 112° (ESE) 19:38:07 145.825 MHz
OPAL 22 Aug 19:35:06 19:39:19 25° 300° (WNW) 19:43:31 ?
JAS-2 22 Aug 19:46:08 19:52:15 38° 262° (W) 19:57:46 435.800 - 435.900 CW/SSB, 435.910 FM
HO-68 22 Aug 20:05:06 20:10:15 22° 53° (NE) 20:15:23 435.675 MHz FM
SO-67 22 Aug 20:09:24 20:12:51 70° 259° (W) 20:16:20 435.3500 MHz FM
ISS 22 Aug 20:18:38 20:21:58 66° 26° (NNE) 20:25:17 145.800 FM
Sapphire 22 Aug 20:40:29 20:45:51 64° 305° (NW) 20:51:16 437.095 MHz 1200 baud AX-25 AFSK
RS-15 22 Aug 20:47:34 20:57:17 38° 252° (WSW) 21:07:21 29.354 - 29.394 USB, Beacon 29.352 USB
STRAND 1 22 Aug 21:03:36 21:08:38 62° 288° (WNW) 21:13:39 ?
PCSat 22 Aug 21:11:32 21:16:33 37° 312° (NW) 21:21:36 145.825 MHz
HO-68 22 Aug 21:49:56 21:57:06 87° 253° (WSW) 22:04:18 435.675 MHz FM
ISS 22 Aug 21:55:53 21:58:26 20° 224° (SW) 22:00:58 145.800 FM
UKube-1 22 Aug 22:06:00 22:10:21 76° 74° (ENE) 22:14:43 145.840 MHz, 145.915 MHz
Oscar 11 22 Aug 22:21:37 22:25:53 64° 74° (ENE) 22:30:12 145.825 FM, Beacon 2401.500 USB
FUNcube-1 22 Aug 22:23:48 22:27:15 26° 67° (ENE) 22:30:45 145.950 - 145.970 MHz USB
Sapphire 22 Aug 22:27:11 22:30:23 16° 327° (NNW) 22:33:35 437.095 MHz 1200 baud AX-25 AFSK
PCSat 22 Aug 23:00:22 23:01:37 11° 335° (NNW) 23:02:53 145.825 MHz
HO-68 22 Aug 23:41:29 23:45:47 17° 272° (W) 23:50:07 435.675 MHz FM
UKube-1 22 Aug 23:45:53 23:47:05 11° 271° (W) 23:48:18 145.840 MHz, 145.915 MHz
FUNcube-1 22 Aug 23:59:56 00:03:35 29° 264° (W) 00:07:16 145.950 - 145.970 MHz USB
Oscar 11 23 Aug 00:00:30 00:02:31 13° 271° (W) 00:04:33 145.825 FM, Beacon 2401.500 USB
MaSat-1 23 Aug 00:28:42 00:32:53 26° 48° (NE) 00:36:42 437.345 MHz
KITSAT 1 23 Aug 00:40:12 00:45:19 19° 101° (E) 00:50:26 435.175 FM
